VLG332 LSGG-LEBL

Flight info

Callsign VLG332
Flight time N/A
Altitude 29000
Route BALSI DCT RETNO DCT TUPOX DCT MTG DCT DIVKO DCT NILDU N975 BISBA
Aircraft A20N/M-SDE2E3FGHIRWXY/LB1

Departure

Time 2026-05-05 16:23
Airport Geneva International Airport (LSGG)

Arrival

Time N/A
Airport Josep Tarradellas Barcelona-El Prat Airport (LEBL)
Time Latitude Longitude Altitude Speed Heading
2026-05-05 15:42 46.23241 6.10673 1428 ft 0 kts 268°
2026-05-05 15:51 46.23241 6.10672 1428 ft 0 kts 268°
2026-05-05 16:05 46.23241 6.10673 1401 ft 0 kts 268°
2026-05-05 16:17 46.23241 6.10670 1401 ft 2 kts 269°
2026-05-05 16:18 46.23255 6.10571 1408 ft 5 kts 302°
2026-05-05 16:18 46.23276 6.10537 1408 ft 4 kts 317°
2026-05-05 16:18 46.23334 6.10552 1411 ft 7 kts 36°
2026-05-05 16:19 46.23379 6.10611 1410 ft 10 kts 43°
2026-05-05 16:19 46.23444 6.10698 1405 ft 16 kts 44°
2026-05-05 16:19 46.23632 6.10973 1400 ft 22 kts 45°
2026-05-05 16:20 46.23859 6.11309 1403 ft 25 kts 45°
2026-05-05 16:20 46.24128 6.11700 1383 ft 30 kts 45°
2026-05-05 16:21 46.24352 6.12031 1381 ft 28 kts 47°
2026-05-05 16:22 46.24766 6.12638 1373 ft 23 kts 40°
2026-05-05 16:22 46.24926 6.12728 1371 ft 2 kts 17°
2026-05-05 16:23 46.24853 6.12428 1373 ft 59 kts 225°
2026-05-05 16:23 46.24419 6.11782 1384 ft 120 kts 224°
2026-05-05 16:23 46.22935 6.09691 2058 ft 155 kts 226°
2026-05-05 16:24 46.22202 6.08590 2823 ft 149 kts 227°
2026-05-05 16:24 46.21493 6.07489 3412 ft 154 kts 225°
2026-05-05 16:24 46.19792 6.05036 4166 ft 188 kts 224°
2026-05-05 16:25 46.18815 6.03613 4396 ft 212 kts 225°
2026-05-05 16:25 46.16576 6.00289 5346 ft 250 kts 225°
2026-05-05 16:25 46.15361 5.98475 6321 ft 250 kts 225°
2026-05-05 16:26 46.12899 5.94822 8090 ft 259 kts 225°
2026-05-05 16:26 46.10329 5.91024 9876 ft 266 kts 225°
2026-05-05 16:27 46.09044 5.89124 10523 ft 276 kts 225°
2026-05-05 16:27 46.07644 5.87059 10801 ft 299 kts 225°
2026-05-05 16:27 46.06140 5.84833 11126 ft 319 kts 225°
2026-05-05 16:27 46.04650 5.82625 11831 ft 323 kts 225°
2026-05-05 16:28 46.02978 5.80455 12629 ft 326 kts 214°
2026-05-05 16:28 46.00933 5.79011 13369 ft 332 kts 198°
2026-05-05 16:28 45.98629 5.78614 14059 ft 339 kts 177°
2026-05-05 16:28 45.96328 5.79476 14695 ft 348 kts 157°
2026-05-05 16:29 45.94481 5.81342 15408 ft 357 kts 139°
2026-05-05 16:29 45.92848 5.84205 16062 ft 366 kts 129°
2026-05-05 16:29 45.91426 5.87267 16754 ft 370 kts 127°
2026-05-05 16:29 45.89999 5.90377 17376 ft 375 kts 128°
2026-05-05 16:30 45.88509 5.93458 18064 ft 375 kts 133°
2026-05-05 16:30 45.86627 5.95979 18679 ft 369 kts 152°
2026-05-05 16:30 45.84323 5.97478 19521 ft 361 kts 168°
2026-05-05 16:30 45.81832 5.97954 20061 ft 367 kts 184°
2026-05-05 16:31 45.79273 5.97798 20716 ft 367 kts 185°
2026-05-05 16:31 45.76717 5.97643 21401 ft 369 kts 184°
2026-05-05 16:31 45.74133 5.97514 21968 ft 373 kts 184°
2026-05-05 16:31 45.71534 5.97396 22540 ft 376 kts 184°
2026-05-05 16:32 45.68910 5.97282 23063 ft 379 kts 184°
2026-05-05 16:32 45.66280 5.97154 23593 ft 382 kts 184°
2026-05-05 16:32 45.63616 5.97001 24046 ft 384 kts 185°
2026-05-05 16:32 45.60942 5.96843 24520 ft 386 kts 185°
2026-05-05 16:33 45.58255 5.96684 24966 ft 388 kts 185°
2026-05-05 16:33 45.55550 5.96527 25469 ft 390 kts 185°
2026-05-05 16:33 45.52825 5.96371 25951 ft 393 kts 185°
2026-05-05 16:33 45.50086 5.96215 26389 ft 395 kts 185°
2026-05-05 16:34 45.47471 5.95913 26778 ft 395 kts 190°
2026-05-05 16:34 45.44773 5.95187 27218 ft 395 kts 195°
2026-05-05 16:34 45.42151 5.94350 27580 ft 397 kts 195°
2026-05-05 16:34 45.39456 5.93497 27962 ft 400 kts 195°
2026-05-05 16:35 45.36734 5.92643 28298 ft 402 kts 195°
2026-05-05 16:35 45.33995 5.91787 28683 ft 403 kts 195°
2026-05-05 16:35 45.31335 5.90958 28874 ft 405 kts 195°
2026-05-05 16:35 45.28584 5.90104 28881 ft 404 kts 195°
2026-05-05 16:36 45.23093 5.88396 28878 ft 404 kts 195°
2026-05-05 16:36 45.17612 5.86693 28877 ft 403 kts 195°
2026-05-05 16:37 45.12126 5.84994 28880 ft 403 kts 195°
2026-05-05 16:37 45.06648 5.83302 28887 ft 403 kts 196°
2026-05-05 16:38 45.02678 5.82076 28879 ft 403 kts 196°
2026-05-05 16:38 44.97193 5.80386 28890 ft 403 kts 196°
2026-05-05 16:39 44.91710 5.78700 28902 ft 403 kts 196°
2026-05-05 16:39 44.86233 5.77019 28897 ft 403 kts 196°
2026-05-05 16:40 44.80754 5.75340 28890 ft 404 kts 196°
2026-05-05 16:40 44.75264 5.73663 28897 ft 403 kts 195°
2026-05-05 16:41 44.69800 5.71997 28900 ft 404 kts 195°
2026-05-05 16:41 44.64310 5.70323 28898 ft 404 kts 195°
2026-05-05 16:42 44.58819 5.68654 28896 ft 404 kts 195°
2026-05-05 16:42 44.53331 5.66989 28897 ft 404 kts 195°
2026-05-05 16:43 44.47826 5.65319 28897 ft 405 kts 195°
2026-05-05 16:43 44.42322 5.63657 28895 ft 404 kts 195°
2026-05-05 16:44 44.36886 5.61749 28898 ft 402 kts 202°
2026-05-05 16:44 44.31738 5.58930 28895 ft 401 kts 204°
2026-05-05 16:45 44.26543 5.56072 28899 ft 401 kts 204°
2026-05-05 16:45 44.21350 5.53232 28892 ft 400 kts 204°
2026-05-05 16:46 44.16158 5.50399 28895 ft 401 kts 204°
2026-05-05 16:46 44.10964 5.47571 28895 ft 401 kts 204°
2026-05-05 16:47 44.05772 5.44749 28895 ft 401 kts 204°
2026-05-05 16:47 44.00574 5.41929 28897 ft 401 kts 204°
2026-05-05 16:48 43.95383 5.39118 28896 ft 401 kts 204°
2026-05-05 16:48 43.90197 5.36312 28901 ft 400 kts 204°
2026-05-05 16:49 43.85021 5.33515 28897 ft 399 kts 204°
2026-05-05 16:49 43.79850 5.30726 28899 ft 399 kts 204°
2026-05-05 16:50 43.74685 5.27946 28905 ft 398 kts 204°
2026-05-05 16:50 43.69531 5.25178 28915 ft 397 kts 204°
2026-05-05 16:51 43.64401 5.22428 28916 ft 396 kts 204°
2026-05-05 16:51 43.59304 5.19700 28913 ft 395 kts 204°
2026-05-05 16:52 43.54174 5.16960 28911 ft 395 kts 204°
2026-05-05 16:52 43.49049 5.14227 28912 ft 395 kts 204°
2026-05-05 16:53 43.43924 5.11498 28912 ft 395 kts 204°
2026-05-05 16:53 43.38864 5.08598 28909 ft 393 kts 210°
2026-05-05 16:54 43.34261 5.04588 28912 ft 392 kts 216°
2026-05-05 16:54 43.29770 5.00330 28909 ft 392 kts 216°
2026-05-05 16:55 43.25259 4.96084 28905 ft 394 kts 216°
2026-05-05 16:55 43.20742 4.91844 28902 ft 394 kts 216°
2026-05-05 16:56 43.16214 4.87599 28901 ft 395 kts 215°
2026-05-05 16:56 43.11678 4.83356 28894 ft 395 kts 215°
2026-05-05 16:57 43.07138 4.79115 28899 ft 396 kts 215°
2026-05-05 16:57 43.02895 4.74427 28901 ft 395 kts 222°
2026-05-05 16:58 42.98784 4.69427 28895 ft 396 kts 221°
2026-05-05 16:58 42.94662 4.64443 28892 ft 396 kts 221°
2026-05-05 16:59 42.90532 4.59463 28895 ft 397 kts 221°
2026-05-05 16:59 42.86390 4.54478 28892 ft 397 kts 221°
2026-05-05 17:00 42.82243 4.49497 28894 ft 398 kts 221°
2026-05-05 17:00 42.78092 4.44519 28893 ft 398 kts 221°
2026-05-05 17:01 42.73935 4.39544 28889 ft 398 kts 221°
2026-05-05 17:01 42.69781 4.34581 28883 ft 397 kts 221°